Voltar ao catálogo

STARLINK-5544

AtivoComunicaçõesVLEO
NORAD 55757·PAYLOAD·🇺🇸 United States

Lançado Mar 3, 2023 de Vandenberg Space Force Base

Loading…

Próximas Passagens (próximas 24 horas)

TLE

AtualizadoSource: CelesTrak SupGP

Época: Sep 15, 2026, 02:42 UTC

1 55757C 23028S   26258.11298611  .00024619  00000+0  20632-2 0  2580
2 55757  70.0000 126.7928 0002687 274.5486 150.2770 14.98318790    15

Acompanhe STARLINK-5544 em tempo real com AllMySat

Download on the App Store